Waarnemingen

Advertentie
Mijn weer
Gioia Del Colle, Italië (16312): temperatuur & dauwpunt: 19.02.2018 18:00:00 - 25.02.2018 18:00:00 (CET)Gioia Del Colle, Italië (16312): windsnelheid: 19.02.2018 18:00:00 - 25.02.2018 18:00:00 (CET)Gioia Del Colle, Italië (16312): windrichting: 19.02.2018 18:00:00 - 25.02.2018 18:00:00 (CET)Gioia Del Colle, Italië (16312): luchtdruk: 19.02.2018 18:00:00 - 25.02.2018 18:00:00 (CET)Gioia Del Colle, Italië (16312): zicht: 19.02.2018 18:00:00 - 25.02.2018 18:00:00 (CET)
Datum & Tijd tt [°C] td [°C] ff [km/u] ff [kn] dd ppp [hPa] vv [km]
25.02.2018 18:00:00 - - - - - - -
25.02.2018 17:00:00 4,0 3,0 26 14 NNW - 4,5
25.02.2018 16:00:00 4,8 3,0 28 15 NW 1004,2 4,0
25.02.2018 15:00:00 6,0 3,0 22 12 NW - 8
25.02.2018 14:00:00 6,0 2,0 16 9 WNW - 10
25.02.2018 13:00:00 7,4 2,1 18 10 WNW 1004,9 10
25.02.2018 12:00:00 8,0 3,0 21 11 WNW - 10
25.02.2018 11:00:00 8,0 3,0 16 9 WNW - 10
25.02.2018 10:00:00 7,4 3,4 13 7 NNW 1006,0 10
25.02.2018 09:00:00 6,0 3,0 18 10 NNW - 10
25.02.2018 08:00:00 5,0 3,0 11 6 NW - 10
25.02.2018 07:00:00 5,0 3,4 4 2 NW 1006,7 10
25.02.2018 06:00:00 6,0 4,0 4 2 N - 10
25.02.2018 05:00:00 5,0 4,0 4 2 WNW - 10
25.02.2018 04:00:00 6,0 4,5 5 3 N 1006,5 10
25.02.2018 03:00:00 6,0 5,0 4 2 NNW - 10
25.02.2018 02:00:00 7,0 5,0 5 3 NW - 10
25.02.2018 01:00:00 6,6 5,6 9 5 W 1007,4 10
25.02.2018 00:00:00 7,0 5,0 4 2 N - 10
24.02.2018 23:00:00 6,0 4,0 5 3 WZW - 10
24.02.2018 22:00:00 5,8 4,1 9 5 WNW 1007,3 10
24.02.2018 21:00:00 7,0 5,0 4 2 NNW - 10
24.02.2018 20:00:00 7,0 5,0 4 2 WNW - 10
24.02.2018 19:00:00 7,6 4,6 4 2 NNO 1006,6 10
24.02.2018 18:00:00 8,0 4,0 8 4 NNO - 10
24.02.2018 17:00:00 9,0 5,0 9 5 NO - 10
24.02.2018 16:00:00 9,8 5,6 18 10 NO 1004,6 10
24.02.2018 15:00:00 10,0 6,0 16 9 NO - 10
24.02.2018 14:00:00 10,0 7,0 11 6 NO - 10
24.02.2018 13:00:00 9,8 6,7 9 5 N 1004,6 8
24.02.2018 12:00:00 10,0 7,0 15 8 NNO - 7
24.02.2018 11:00:00 9,0 6,0 13 7 O - 10
24.02.2018 10:00:00 9,0 6,1 15 8 OZO 1004,3 10
24.02.2018 09:00:00 8,0 7,0 15 8 OZO - 10
24.02.2018 08:00:00 7,0 5,0 9 5 O - 9
24.02.2018 07:00:00 6,4 4,9 15 8 O 1002,0 7
24.02.2018 06:00:00 7,0 5,0 15 8 OZO - 7
24.02.2018 05:00:00 7,0 5,0 18 10 OZO - 6
24.02.2018 04:00:00 7,0 5,5 24 13 ZO 1000,8 6
24.02.2018 03:00:00 7,0 5,0 15 8 O - 7
24.02.2018 02:00:00 7,0 5,0 15 8 O - 7
24.02.2018 01:00:00 7,4 5,4 21 11 ZO 1001,0 6
24.02.2018 00:00:00 9,0 5,0 16 9 ZO - 7
23.02.2018 23:00:00 10,0 5,0 29 16 O - 7
23.02.2018 22:00:00 10,0 5,4 31 17 O 1001,4 7
23.02.2018 21:00:00 10,0 6,0 39 21 OZO - 7
23.02.2018 20:00:00 10,0 7,0 37 20 OZO - 7
23.02.2018 19:00:00 9,8 7,2 31 17 OZO 1001,9 7
23.02.2018 18:00:00 10,0 7,0 31 17 ZO - 6
23.02.2018 17:00:00 10,0 7,0 31 17 ZO - 6
23.02.2018 16:00:00 10,2 7,4 39 21 ZO 1002,4 6
23.02.2018 15:00:00 11,0 8,0 42 23 ZO - 6
23.02.2018 14:00:00 11,0 8,0 41 22 ZO - 6
23.02.2018 13:00:00 10,8 7,9 42 23 ZZO 1003,5 6
23.02.2018 12:00:00 11,0 8,0 44 24 ZZO - 7
23.02.2018 11:00:00 11,0 9,0 42 23 ZZO - 7
23.02.2018 10:00:00 10,0 8,6 44 24 ZZO 1003,9 6
23.02.2018 09:00:00 10,0 8,0 42 23 ZZO - 6
23.02.2018 08:00:00 9,0 8,0 37 20 ZZO - 6
23.02.2018 07:00:00 9,0 7,4 29 16 ZO 1003,8 5
23.02.2018 06:00:00 9,0 7,0 29 16 Z - 5
23.02.2018 05:00:00 9,0 7,0 26 14 ZZO - 10
23.02.2018 04:00:00 7,8 6,3 24 13 ZZO 1004,4 10
23.02.2018 03:00:00 8,0 6,0 31 17 Z - 10
23.02.2018 02:00:00 8,0 6,0 31 17 ZZO - 10
23.02.2018 01:00:00 7,6 6,1 35 19 ZZO 1004,4 10
23.02.2018 00:00:00 8,0 6,0 34 18 ZZO - 10
22.02.2018 23:00:00 8,0 6,0 29 16 ZZO - 10
22.02.2018 22:00:00 8,4 5,9 35 19 ZZO 1004,3 10
22.02.2018 21:00:00 8,0 5,0 29 16 ZZO - 10
22.02.2018 20:00:00 8,0 6,0 31 17 ZZO - 10
22.02.2018 19:00:00 8,6 5,5 28 15 ZZO 1004,3 10
22.02.2018 18:00:00 9,0 5,0 28 15 ZO - 10
22.02.2018 17:00:00 9,0 5,0 31 17 ZZO - 10
22.02.2018 16:00:00 9,0 4,2 37 20 ZZO 1003,7 10
22.02.2018 15:00:00 9,0 3,0 34 18 ZO - 10
22.02.2018 14:00:00 9,0 4,0 34 18 ZZO - 10
22.02.2018 13:00:00 9,0 3,4 29 16 ZZO 1004,1 10
22.02.2018 12:00:00 10,0 5,0 34 18 ZZO - 10
22.02.2018 11:00:00 9,0 6,0 18 10 ZZO - 9
22.02.2018 10:00:00 6,8 6,1 16 9 ZZO 1004,5 8
22.02.2018 09:00:00 6,0 5,0 11 6 ZZO - 6
22.02.2018 08:00:00 3,0 2,0 2 1 - - 4,0
22.02.2018 07:00:00 3,0 2,3 11 6 ZZO 1003,9 4,5
22.02.2018 06:00:00 1,0 0,0 4 2 ZZW - 2,0
22.02.2018 05:00:00 1,0 1,0 8 4 Z - 2,0
22.02.2018 04:00:00 1,4 0,7 15 8 Z 1003,0 4,0
22.02.2018 03:00:00 2,0 1,0 11 6 Z - 4,0
22.02.2018 02:00:00 2,0 1,0 13 7 ZZW - 4,0
22.02.2018 01:00:00 3,0 2,3 8 4 ZZW 1002,3 4,0
22.02.2018 00:00:00 4,0 3,0 4 2 WNW - 4,0
21.02.2018 23:00:00 4,0 4,0 5 3 WNW - 3,5
21.02.2018 22:00:00 4,4 3,7 5 3 N 1001,7 3,5
21.02.2018 21:00:00 4,0 4,0 8 4 N - 3,5
21.02.2018 20:00:00 5,0 5,0 15 8 W - 2,0
21.02.2018 19:00:00 5,4 5,1 5 3 NNO 1000,9 2,0
21.02.2018 18:00:00 5,0 5,0 4 2 NNO - 2,0
21.02.2018 17:00:00 6,0 6,0 9 5 WNW - 2,0
21.02.2018 16:00:00 6,0 5,7 8 4 N 1000,5 1,8
21.02.2018 15:00:00 6,0 6,0 13 7 W - 0,8
21.02.2018 14:00:00 7,0 7,0 9 5 NNO - 1,8
21.02.2018 13:00:00 7,0 6,7 8 4 NNO 1001,0 1,2
21.02.2018 12:00:00 6,0 6,0 9 5 N - 1,4
21.02.2018 11:00:00 6,0 6,0 13 7 N - 2,2
21.02.2018 10:00:00 5,2 4,8 11 6 N 1001,5 3,0
21.02.2018 09:00:00 5,0 4,0 15 8 NNO - 4,0
21.02.2018 08:00:00 5,0 4,0 11 6 N - 3,0
21.02.2018 07:00:00 4,8 4,2 11 6 N 1001,1 2,0
21.02.2018 06:00:00 5,0 4,0 11 6 N - -
21.02.2018 05:00:00 5,0 4,0 11 6 N - 0,1
21.02.2018 04:00:00 5,0 4,4 4 2 NNO 1001,8 10
21.02.2018 03:00:00 5,0 4,0 8 4 Z - 10
21.02.2018 02:00:00 5,0 4,0 9 5 Z - 10
21.02.2018 01:00:00 5,0 4,4 9 5 Z 1002,4 10
21.02.2018 00:00:00 5,0 5,0 13 7 ZO - 7
20.02.2018 23:00:00 6,0 5,0 11 6 ZZO - 5
20.02.2018 22:00:00 6,4 5,5 5 3 ZZW 1003,1 2,0
20.02.2018 21:00:00 6,0 6,0 0 0 N - 2,0
20.02.2018 20:00:00 6,0 5,0 5 3 ONO - 4,0
20.02.2018 19:00:00 6,8 5,3 9 5 NO 1003,2 6
20.02.2018 18:00:00 7,0 5,0 9 5 ONO - 6
20.02.2018 17:00:00 7,0 6,0 16 9 ONO - 6
20.02.2018 16:00:00 7,8 5,8 18 10 NO 1004,5 6
20.02.2018 15:00:00 8,0 6,0 16 9 NO - 6
20.02.2018 14:00:00 9,0 6,0 9 5 NO - 7
20.02.2018 13:00:00 9,0 6,6 4 2 N 1006,4 7
20.02.2018 12:00:00 8,0 7,0 2 1 - - 7
20.02.2018 11:00:00 7,0 6,0 8 4 NNW - 6
20.02.2018 10:00:00 6,6 5,7 4 2 N 1008,0 6
20.02.2018 09:00:00 6,0 5,0 4 2 - - 6
20.02.2018 08:00:00 6,0 5,0 5 3 ONO - 6
20.02.2018 07:00:00 5,6 4,7 5 3 NO 1008,7 4,5
20.02.2018 06:00:00 6,0 5,0 5 3 N - 3,5
20.02.2018 05:00:00 6,0 5,0 8 4 NNO - 3,5
20.02.2018 04:00:00 6,2 5,5 4 2 NNW 1009,0 3,5
20.02.2018 03:00:00 6,0 5,0 4 2 NNW - 3,5
20.02.2018 02:00:00 6,0 5,0 4 2 NNW - 3,5
20.02.2018 01:00:00 6,0 5,6 5 3 NW 1010,5 3,2
20.02.2018 00:00:00 6,0 6,0 4 2 NNW - 3,0
19.02.2018 23:00:00 6,0 6,0 8 4 WNW - 2,5
19.02.2018 22:00:00 6,4 6,1 5 3 NW 1011,2 2,5
19.02.2018 21:00:00 7,0 6,0 8 4 NW - 2,0
19.02.2018 20:00:00 7,0 7,0 8 4 NNW - 1,6
19.02.2018 19:00:00 7,4 6,7 11 6 N 1011,1 1,2
19.02.2018 18:00:00 8,0 7,0 9 5 N - 1,2

tt = temperatuur
td = dauwpunt
ff = windsnelheid
dd = windrichting
ppp = luchtdruk
vv = zicht

Weerstations in de omgeving